Regional Weather Roundup
Issued by NWS Upton, NY

Current Version | Previous Version | Text Only | Print | Product List | Glossary On
Versions: 1 2 3 4 5 6 7 8 9 10 11 12 13 14 15 16 17 18 19 20 21 22 23 24 25 26 27 28 29 30 31 32 33 34 35 36 37 38 39 40 41 42 43 44 45 46 47 48 49 50
000 ASUS41 KOKX 292104 RWROKX REGIONAL WEATHER ROUNDUP NATIONAL WEATHER SERVICE NEW YORK NY 500 PM EDT FRI APR 29 2016 NOTE: "FAIR" INDICATES FEW OR NO CLOUDS BELOW 12,000 FEET WITH NO SIGNIFICANT WEATHER AND/OR OBSTRUCTIONS TO VISIBILITY. NYZ071-072-176-178-NJZ106-104-292200- NEW YORK CITY METRO AREA CITY SKY/WX TMP DP RH WIND PRES REMARKS CENTRAL PARK CLOUDY 54 35 48 E3 30.10F LAGUARDIA APRT CLOUDY 54 40 59 NE12 30.08F KENNEDY INTL CLOUDY 53 32 44 E12 30.10S NEWARK/LIBERTY CLOUDY 54 25 32 SE10 30.09R BRNX BOT. GARD N/A 50 37 62 SE7 30.11R TETERBORO CLOUDY 54 32 43 E7 30.08S $$ NYZ177-179-078>081-292200- LONG ISLAND NEW YORK CITY SKY/WX TMP DP RH WIND PRES REMARKS FARMINGDALE CLOUDY 53 26 35 E10G22 30.08F ISLIP CLOUDY 54 29 38 E13 30.08S SHIRLEY PTSUNNY 52 34 50 SE9 30.09S RIVERHEAD N/A 52 36 54 E2 30.09S WESTHAMPTON CLOUDY 47 34 60 E9G17 30.11S EAST HAMPTON PTSUNNY 49 31 49 E8 30.10S MONTAUK POINT N/A 50 35 56 NE10G17 30.13S $$ NYZ052-065-067-292200- HUDSON VALLEY CITY SKY/WX TMP DP RH WIND PRES REMARKS WHITE PLAINS CLOUDY 52 33 48 SE9 30.08S NEWBURGH CLOUDY 55 34 44 E7 30.07 MONTGOMERY CLOUDY 56 31 38 S5 30.05F POUGHKEEPSIE CLOUDY 58 30 34 SE6 30.06S ALBANY CLOUDY 57 36 45 SW12 30.06S $$ NJZ001-105-106-008-010-013-015-019>022-104-292200- NEW JERSEY CITY SKY/WX TMP DP RH WIND PRES REMARKS NEWARK/LIBERTY CLOUDY 54 25 32 SE10 30.09R TETERBORO CLOUDY 54 32 43 E7 30.08S CALDWELL CLOUDY 54 31 41 SE7 30.08S MORRISTOWN CLOUDY 52 30 43 SW9 30.09R SOMERVILLE LGT RAIN 51 37 58 SE6 30.07R SUSSEX CLOUDY 52 34 50 CALM 30.07S ANDOVER N/A 51 33 50 NE5 30.06S TRENTON LGT RAIN 49 40 71 E8 30.08R MILLVILLE CLOUDY 50 46 86 NE7 30.05F ATLANTIC CITY CLOUDY 49 46 90 NE12 30.06S WRIGHTSTOWN LGT RAIN 48 45 87 NE6 30.06R TOMS RIVER CLOUDY 46 43 87 NE8 30.08S BELMAR LGT RAIN 48 39 71 E8 30.09F $$ PAZ047>061-062-071-292200- EASTERN PENNSYLVANIA CITY SKY/WX TMP DP RH WIND PRES REMARKS PHILADELPHIA CLOUDY 51 42 71 NE8 30.09R ALLENTOWN LGT RAIN 49 41 74 E7 30.07S SCRANTON CLOUDY 50 39 66 CALM 30.03S $$ CTZ002-004>006-009-010-012-RIZ004-006-007-MAZ004-011-015-292200- SOUTHERN NEW ENGLAND IN CT CITY SKY/WX TMP DP RH WIND PRES REMARKS BRADLEY INTL CLOUDY 58 36 43 S7 30.06F HARTFORD CLOUDY 59 37 44 SW5 30.07F DANBURY CLOUDY 53 33 46 S8 30.09S WTRBRY/OXFORD CLOUDY 52 34 50 S9 30.09F BRIDGEPORT CLOUDY 50 39 66 E15 30.09F MERIDEN CLOUDY 55 35 47 S8 30.09S NEW HAVEN CLOUDY 49 38 65 E10 30.10F CHESTER MOCLDY 50 34 53 E7 30.10S GROTON PTSUNNY 49 41 74 E13 30.11F WILLIMANTIC MOSUNNY 58 31 35 S7 30.08S IN RI CITY SKY/WX TMP DP RH WIND PRES REMARKS PROVIDENCE CLOUDY 51 34 52 S14 30.12R BLOCK ISLAND CLOUDY 47 38 71 E14 30.12S WESTERLY CLOUDY 50 35 56 E12 30.12S IN MA CITY SKY/WX TMP DP RH WIND PRES REMARKS BOSTON MOSUNNY 48 36 63 E18 30.14R WORCESTER PTSUNNY 56 30 37 SE9 30.07R WESTFIELD CLOUDY 57 34 41 S8 30.06S PROVINCETOWN SUNNY 49 28 44 E13 30.15R NANTUCKET CLOUDY 48 35 60 E14 30.13R $$ ANZ330-335-338-340-345-350-353-355-292200- COASTAL MARINE OBSERVATIONS STATION/POSITION TIME SKY/WX TEMP WIND PRES VSBY WAVE AIR SEA DIR/SP/G HT/PER (UTC) (F) (DEG/KT/KT) (MB) (MI) (FT/S) NY HARB ENTRANCE 1950 48 51 70/ 16/ 17 1018.2 6/ 6 20S FIRE ISLAND 1950 47 49 70/ 17/ 21 1017.8 7/ 7 GREAT SOUTH BAY 2030 49 57 80/ 12/ 17 N/A 23 SSW MONTAUK P 2050 45 47 80/ 16/ 19 1018.9 5/ 7 15 E BARNEGAT LI 2022 51 N/A 7/ 7 HUDSON CANYON 1950 50 51 1015.9 7/ 8 KINGS POINT 2000 53 53 1018.7 EXECUTION ROCKS NOT AVBL CENTRAL LI SOUND 2000 47 90/ 14/ 16 N/A 2/ 4 EASTERN LI SOUND 2000 49 48 100/ 12/ 16 N/A ROBBINS REEF 2006 52 130/ 13/ 16 1018.0 $$ >>>>>>>>>>>>>>>>>>>>>>>>>>>> KEY <<<<<<<<<<<<<<<<<<<<<<<<<<< > < > SKY/WX - SKY CONDITION/PRESENT WEATHER < > TMP - TEMPERATURE IN FAHRENHEIT < > DP - DEWPOINT IN FAHRENHEIT < > RH - RELATIVE HUMIDITY IN PERCENT < > WIND - DIRECTION AND SPEED IN MPH < > PRES - MEAN SEA LEVEL PRESSURE IN INCHES OF HG < > WCI - WIND CHILL INDEX < > VSB - VISIBILITY IN MILES < > HX - HEAT INDEX < > TC - TEMPERATURE IN CELSIUS < > VRB - VARIABLE WIND DIRECTION < > < >>>>>>>>>>>>>>>>>>>>>>>>>>>> KEY <<<<<<<<<<<<<<<<<<<<<<<<<<<

USA.gov is the U.S. government's official web portal to all federal, state and local government web resources and services.